Location: Dallas
(32.7833°N, 96.8000°W)
Time: 23:35:06
(UTC-06:00)

Envisat - Pass Details

Date: 24 January 2021
Orbit: 764 x 766 km, 98.1° (Epoch: 06 March)

Event Time Altitude Azimuth Distance (km) Brightness Sun altitude
Rises 18:45:38 0° 212° (SSW) 3,218 7.0 -11.4°
Reaches altitude 10° 18:49:11 10° 238° (WSW) 2,297 6.8 -12.1°
Maximum altitude 18:51:37 13° 267° (W) 2,066 6.5 -12.6°
Drops below altitude 10° 18:54:03 10° 296° (WNW) 2,304 6.2 -13.1°
Sets 18:57:38 0° 323° (NW) 3,235 6.6 -13.8°
